This is the latest recevied weather packets stored in our database for station/object K5NCO. If no packets are shown the sender has not sent any weather packets the latest 10 day(s).
| Time | Temp. | Humidity | Pressure | Rain* | Wind** | Luminosity | Snow |
|---|---|---|---|---|---|---|---|
| 1777839512 | 25° C | 37% | 1021.5 hPa | 0 mm | - | 660 W/m² | - |
| 1777839208 | 25° C | 36% | 1021.6 hPa | 0 mm | - | 664 W/m² | - |
| 1777838906 | 25.56° C | 38% | 1021.5 hPa | 0 mm | - | 676 W/m² | - |
| 1777838601 | 26.11° C | 34% | 1021.5 hPa | 0 mm | - | 688 W/m² | - |
| 1777838299 | 25° C | 39% | 1021.7 hPa | 0 mm | - | 687 W/m² | - |
| 1777837995 | 25° C | 39% | 1021.9 hPa | 0 mm | - | 705 W/m² | - |
| 1777837693 | 25° C | 38% | 1021.9 hPa | 0 mm | - | 707 W/m² | - |
| 1777837389 | 25° C | 36% | 1021.9 hPa | 0 mm | - | 711 W/m² | - |
| 1777837085 | 25° C | 37% | 1022.2 hPa | 0 mm | - | 718 W/m² | - |
| 1777836781 | 24.44° C | 37% | 1022.2 hPa | 0 mm | - | 723 W/m² | - |
| 1777836477 | 25° C | 38% | 1022.1 hPa | 0 mm | - | 730 W/m² | - |
| 1777836172 | 25° C | 38% | 1022 hPa | 0 mm | - | 734 W/m² | - |
| 1777835869 | 25° C | 40% | 1022.1 hPa | 0 mm | - | 733 W/m² | - |
| 1777835566 | 24.44° C | 40% | 1022.4 hPa | 0 mm | - | 734 W/m² | - |
| 1777835263 | 24.44° C | 41% | 1022.3 hPa | 0 mm | - | 744 W/m² | - |
| 1777834960 | 24.44° C | 39% | 1022.4 hPa | 0 mm | - | 749 W/m² | - |
| 1777834657 | 24.44° C | 42% | 1022.4 hPa | 0 mm | - | 740 W/m² | - |
| 1777834353 | 25° C | 40% | 1022.8 hPa | 0 mm | - | 753 W/m² | - |
| 1777834047 | 24.44° C | 38% | 1022.6 hPa | 0 mm | - | 757 W/m² | - |
| 1777833744 | 24.44° C | 37% | 1022.8 hPa | 0 mm | - | 755 W/m² | - |
| 1777833440 | 23.89° C | 38% | 1022.9 hPa | 0 mm | - | 754 W/m² | - |
| 1777833138 | 24.44° C | 39% | 1023 hPa | 0 mm | - | 751 W/m² | - |
| 1777832836 | 24.44° C | 38% | 1023.1 hPa | 0 mm | - | 737 W/m² | - |
| 1777832534 | 24.44° C | 36% | 1023.3 hPa | 0 mm | - | 759 W/m² | - |
| 1777832230 | 25° C | 37% | 1023.4 hPa | 0 mm | - | 753 W/m² | - |
* Rain latest hour (hover to see other rain measurements)
** Current wind speed in m/s (hover to see current wind gust speed)